This demonstration page uses our WeatherBlox Daily Observations layout. Learn more.

Left ArrowRight Arrow

Hourly Observations for January 23, 2019

Temp ( °F °C ) Dew Point ( °F °C ) Humidity (%) Winds ( mph kmh ) Pressure ( in mb ) Visibility ( mi km ) Precip ( " mm )
12:53 am 00:53 Cloudy 43 6.1 26 -3.3 51 51 E 12 19 30.37 1028 10 16 0.00 0.00
1:53 am 01:53 Cloudy 44 6.7 29 -1.7 55 55 E 8 13 30.34 1028 10 16 0.00 0.00
2:53 am 02:53 Cloudy 43 6.1 30 -1.1 60 60 E 9 15 30.32 1027 10 16 0.00 0.00
3:53 am 03:53 Cloudy 44 6.7 33 0.6 65 65 ESE 13 20 30.29 1026 10 16 0.00 0.00
4:53 am 04:53 Cloudy 43 6.1 33 0.6 68 68 E 8 13 30.27 1025 10 16 0.00 0.00
5:53 am 05:53 Cloudy 44 6.7 34 1.1 68 68 E 5 7 30.24 1024 10 16 0.00 0.00
6:33 am 06:33 Cloudy 44 6.7 35 1.7 71 71 ESE 6 9 30.24 1024 10 16 0.00 0.00
6:53 am 06:53 Cloudy 44 6.7 36 2.2 73 73 E 7 11 30.22 1023 10 16 0.00 0.00
7:53 am 07:53 Cloudy 44 6.7 37 2.8 76 76 ESE 8 13 30.20 1023 10 16 0.00 0.00
8:53 am 08:53 Cloudy 45 7.2 40 4.4 83 83 SE 7 11 30.19 1022 10 16 0.00 0.00
9:53 am 09:53 Cloudy 48 8.9 44 6.7 86 86 ESE 8 13 30.16 1021 10 16 0.00 0.00
10:53 am 10:53 Cloudy 51 10.6 48 8.9 89 89 VRB 7 11 30.14 1021 10 16 0.00 0.00
11:53 am 11:53 Partly Cloudy 58 14.4 51 10.6 78 78 SSE 13 20 30.08 1019 10 16 0.00 0.00
12:53 pm 12:53 Mostly Cloudy 63 17.2 52 11.1 68 68 ESE 5 7 30.01 1016 10 16 0.00 0.00
1:53 pm 13:53 Cloudy 67 19.4 51 10.6 57 57 S 17 28 29.93 1014 10 16 0.00 0.00
2:53 pm 14:53 Cloudy 67 19.4 52 11.1 59 59 SSE 12 19 29.89 1012 10 16 0.00 0.00
3:53 pm 15:53 Mostly Cloudy 67 19.4 52 11.1 59 59 SSE 18 30 29.83 1010 10 16 0.00 0.00
4:53 pm 16:53 Cloudy 68 20 53 11.7 59 59 SSE 15 24 29.80 1009 10 16 0.00 0.00
5:53 pm 17:53 Cloudy with Light Rain 66 18.9 55 12.8 68 68 SSE 16 26 29.76 1008 10 16 0.00 0.03
6:53 pm 18:53 Cloudy with Light Rain 62 16.7 58 14.4 86 86 S 10 17 29.75 1007 6 10 0.05 1.27
7:53 pm 19:53 Cloudy with Rain 60 15.6 59 15 96 96 SE 8 13 29.72 1007 5 8 0.21 5.33
8:19 pm 20:19 Cloudy with Heavy Rain 59 15 59 15 100 100 W 14 22 29.77 1008 3 4 0.24 6.10
8:26 pm 20:26 Cloudy with Heavy Rain 59 15 59 15 100 100 W 5 7 29.77 1008 1 2 0.48 12.19
8:43 pm 20:43 Cloudy with Heavy Rain 59 15 59 15 100 100 S 3 6 29.77 1008 3 4 0.62 15.75
8:53 pm 20:53 Cloudy with Heavy Rain 59 15 59 15 100 100 Calm 29.75 1008 3 4 0.69 17.53
9:03 pm 21:03 Cloudy with Heavy Rain 58 14.4 58 14.4 100 100 Calm 29.77 1008 3 5 0.06 1.52
9:41 pm 21:41 Cloudy with Heavy Rain 58 14.4 58 14.4 100 100 Calm 29.77 1008 3 5 0.27 6.86
9:48 pm 21:48 Cloudy with Heavy Rain 57 14 57 14 100 100 Calm 29.74 1007 2 3 0.32 8.13
9:53 pm 21:53 Cloudy with Heavy Rain 57 13.9 57 13.9 100 100 NNE 3 6 29.75 1007 3 4 0.36 9.14
9:58 pm 21:58 Cloudy with Heavy Rain 56 13.3 56 13.3 100 100 ENE 5 7 29.74 1007 3 5 0.03 0.76
10:04 pm 22:04 Cloudy with Rain 56 13.3 56 13.3 100 100 NE 5 7 29.74 1007 2 3 0.05 1.27
10:53 pm 22:53 Cloudy with Light Rain 55 12.8 55 12.8 100 100 NW 3 6 29.70 1006 2 3 0.16 4.06
11:00 pm 23:00 Cloudy with Light Rain 55 12.8 55 12.8 100 100 Calm 29.71 1006 2 3 0.00 0.03
11:53 pm 23:53 Cloudy with Rain 55 12.8 55 12.8 100 100 NNW 5 7 29.71 1006 7 11 0.18 4.57

Powered by AerisWeather